Home   Weather   Evansville   Past weeks

Flag for USA Past Weather in Evansville, Indiana, USA — Yesterday and Last 2 Weeks

Now
71 °F

Partly sunny.


Feels Like: 69 °F
Forecast: 69 / 88 °F
Wind: 8 mph from East

Location: Evansville Regional Airport

Current Time: Jul 25, 2017 at 5:59:42 am

Latest Report: Jul 25, 2017 at 4:54 am


Visibility: 10 mi

Pressure: 30.07 "Hg

Humidity: 87%

Dew Point: 67 °F

Location of EvansvilleLocation

Past Weather in Evansville — Graph

°F

Evansville Temperature Yesterday

Maximum temperature yesterday: 91 °F (at 2:54 pm)
Minimum temperature yesterday: 71 °F (at 4:54 am)
Average temperature yesterday: 81 °F

High & Low Weather Summary for the Past Weeks

 TemperatureHumidityPressure
High98 °F (Jul 22, 2:54 pm)97% (Jul 16, 2:54 am)30.14 "Hg (Jul 16, 2:54 am)
Low64 °F (Jul 16, 4:54 am)40% (Jul 20, 1:54 pm)29.78 "Hg (Jul 22, 3:54 pm)
Average81 °F70%29.99 "Hg
* Reported Jul 10 4:54 am — Jul 25 4:54 am, Evansville. Weather by CustomWeather, © 2017

Note: Actual official high and low records may vary slightly from our data, if they occured in-between our weather recording intervals... More about our weather records

Advertising

Evansville Weather History for the Previous 24 Hours

Scroll right to see more
 ConditionsComfort  
Time TempWeatherWind HumidityBarometerVisibility
4:54 am
Tue, Jul 25
71 °FPartly sunny.8 mph87%30.07 "Hg10 mi
3:54 am71 °FPassing clouds.7 mph87%30.05 "Hg10 mi
2:54 am72 °FPassing clouds.7 mph87%30.04 "Hg10 mi
1:54 am71 °FClear.5 mph90%30.04 "Hg10 mi
12:54 am72 °FPassing clouds.7 mph87%30.03 "Hg10 mi
11:54 pm
Mon, Jul 24
74 °FClear.8 mph82%30.02 "Hg10 mi
10:54 pm76 °FClear.6 mph77%30.00 "Hg10 mi
9:54 pm77 °FClear.3 mph74%30.01 "Hg10 mi
8:54 pm77 °FClear.3 mph74%29.98 "Hg10 mi
7:54 pm80 °FClear.7 mph67%29.96 "Hg10 mi
6:54 pm85 °FSunny.10 mph57%29.95 "Hg10 mi
5:54 pm88 °FSunny.9 mph50%29.92 "Hg10 mi
4:54 pm90 °FPassing clouds.8 mph52%29.91 "Hg10 mi
3:54 pm91 °FScattered clouds.6 mph49%29.92 "Hg10 mi
2:54 pm91 °FScattered clouds.8 mph42%29.93 "Hg10 mi
1:54 pm89 °FScattered clouds.9 mph53%29.93 "Hg10 mi
12:54 pm89 °FScattered clouds.3 mph53%29.93 "Hg10 mi
11:54 am88 °FSunny.8 mph59%29.93 "Hg10 mi
10:54 am86 °FSunny.3 mph61%29.93 "Hg10 mi
9:54 am84 °FSunny.5 mph65%29.92 "Hg10 mi
8:54 am82 °FSunny.No wind70%29.92 "Hg10 mi
7:54 am77 °FSunny.No wind85%29.92 "Hg10 mi
6:54 am73 °FSunny.No wind94%29.91 "Hg10 mi
5:54 am72 °FSunny.No wind93%29.90 "Hg10 mi
Weather by CustomWeather, © 2017

See weather overviewHow to use our weather pages